Location: Recife
(8.0585°S, 34.8848°W)
Time: 06:47:02
(UTC-03:00)

Vanguard 3 - Pass Details

Date: 14 April 2026
Orbit: 507 x 3205 km, 33.4° (Epoch: 13 May)

Event Time Altitude Azimuth Distance (km) Brightness Sun altitude
Rises 18:48:52 0° 244° (WSW) 5,996 12.5 -23.2°
Reaches altitude 10° 18:53:42 10° 249° (WSW) 4,539 11.8 -24.4°
Maximum altitude 19:04:21 45° 317° (NW) 1,758 9.0 -27.0°
Enters shadow 19:08:59 19° 20° (NNE) 2,222 9.2 -28.1°
Drops below altitude 10° 19:10:32 10° 29° (NNE) 2,656 - -28.5°
Sets 19:12:41 0° 36° (NE) 3,356 - -29.0°
